Weather History for Biloxi, MS

Change the Weather History Date:

Thursday, October 4, 2012

  Actual Average Record
Temperature  
Mean Temperature 75 °F -  
Max Temperature 89 °F 83 °F 92 °F (1969)
Min Temperature 64 °F 63 °F 49 °F (1974)
Cooling Degree Days 10    
Growing Degree Days 25 (Base 50)    
Moisture  
Dew Point 67 °F    
Average Humidity 78    
Maximum Humidity 93    
Minimum Humidity 58    
Precipitation  
Precipitation 0.00 in - - ()
Sea Level Pressure  
Sea Level Pressure 30.18 in    
Wind  
Wind Speed 6 mph (ENE)    
Max Wind Speed 9 mph    
Max Gust Speed -    
Visibility 10 miles    
Events      
Averages and records for this station are not official NWS values.
T = Trace of Precipitation, MM = Missing Value Source: NWS Daily Summary

Daily Weather History Graph

Daily Weather History Graph

Search for Another Location

Airport:

Trip Planner

Search our weather history database for the weather conditions in past years. The results will help you decide how hot, cold, wet, or windy it might be!

Date:

Astronomy

Oct. 04, 2012 Rise Set
Actual Time 6:51 AM CDT 6:36 PM CDT
Civil Twilight 6:27 AM CDT 7:00 PM CDT
Nautical Twilight 5:59 AM CDT 7:28 PM CDT
Astronomical Twilight 5:31 AM CDT 7:56 PM CDT
Moon 9:31 PM CDT (10/4) 10:49 AM CDT (10/4)
Length of Visible Light 12h 33m
Length of Day
11h 45m
Waning Gibbous, 82% of the Moon is Illuminated
Oct 4
Waning Gibbous
Oct 8
Last Quarter
Oct 15
New
Oct 21
First Quarter
Oct 29
Full

Hourly Weather History & Observations

Time (CDT) Temp. Heat Index Dew Point Humidity Pressure Visibility Wind Dir Wind Speed Gust Speed Precip Events Conditions
12:55 AM 68.7 °F - 62.8 °F 81% 30.15 in 10.0 mi East 6.9 mph - N/A   Clear
1:55 AM 67.5 °F - 61.2 °F 80% 30.15 in 10.0 mi ENE 6.9 mph - N/A   Clear
2:55 AM 66.6 °F - 61.2 °F 83% 30.16 in 10.0 mi ENE 6.9 mph - N/A   Clear
3:55 AM 65.3 °F - 62.8 °F 92% 30.16 in 10.0 mi NE 5.8 mph - N/A   Clear
4:55 AM 64.6 °F - 62.6 °F 93% 30.17 in 10.0 mi NE 6.9 mph - N/A   Clear
5:55 AM 64.4 °F - 61.3 °F 90% 30.19 in 10.0 mi ENE 5.8 mph - N/A   Clear
6:55 AM 64.4 °F - 60.3 °F 86% 30.20 in 10.0 mi NE 5.8 mph - N/A   Clear
7:55 AM 65.8 °F - 61.5 °F 86% 30.21 in 10.0 mi NE 6.9 mph - N/A   Clear
8:55 AM 71.1 °F - 64.0 °F 78% 30.22 in 10.0 mi ENE 8.1 mph - N/A   Clear
9:55 AM 76.6 °F - 68.4 °F 75% 30.22 in 10.0 mi NNE 6.9 mph - N/A   Clear
10:55 AM 80.6 °F 83.9 °F 69.8 °F 70% 30.22 in 10.0 mi East 6.9 mph - N/A   Clear
11:55 AM 82.2 °F 85.3 °F 68.5 °F 63% 30.21 in 10.0 mi ESE 5.8 mph - N/A   Clear
12:55 PM 82.4 °F 86.3 °F 69.8 °F 66% 30.19 in 10.0 mi Variable 3.5 mph - N/A   Partly Cloudy
1:13 PM 82.4 °F 87.2 °F 71.6 °F 70% 30.19 in 10.0 mi South 5.8 mph - N/A   Mostly Cloudy
1:55 PM 86.0 °F 90.4 °F 69.8 °F 58% 30.17 in 10.0 mi South 8.1 mph - N/A   Clear
2:55 PM 84.0 °F 88.4 °F 70.2 °F 63% 30.16 in 10.0 mi WSW 4.6 mph - N/A   Clear
3:55 PM 82.2 °F 86.2 °F 70.2 °F 67% 30.16 in 10.0 mi South 9.2 mph - N/A   Clear
4:55 PM 80.6 °F 83.8 °F 69.6 °F 69% 30.16 in 10.0 mi South 6.9 mph - N/A   Clear
5:55 PM 79.2 °F - 68.7 °F 70% 30.15 in 10.0 mi Calm Calm - N/A   Clear
6:55 PM 76.5 °F - 67.5 °F 74% 30.16 in 10.0 mi Calm Calm - N/A   Clear
7:55 PM 75.4 °F - 67.8 °F 77% 30.15 in 10.0 mi Calm Calm - N/A   Clear
8:55 PM 73.8 °F - 69.8 °F 87% 30.17 in 10.0 mi Calm Calm - N/A   Clear
9:55 PM 73.0 °F - 70.2 °F 91% 30.17 in 10.0 mi NNE 3.5 mph - N/A   Clear
10:55 PM 72.0 °F - 69.8 °F 93% 30.17 in 10.0 mi NE 3.5 mph - N/A   Clear
11:55 PM 71.2 °F - 68.9 °F 92% 30.16 in 10.0 mi ENE 3.5 mph - N/A   Clear